Tracking 29528 objects as of 13-Sep-2024
HD Live streaming from Space Station
objects crossing your sky now

STARLINK-4216

Track STARLINK-4216 now!
10-day predictions
STARLINK-4216 is classified as:


NORAD ID: 53022
Int'l Code: 2022-076AN
Perigee: 545.8 km
Apogee: 547.8 km
Inclination: 53.2 °
Period: 95.4 minutes
Semi major axis: 6917 km
RCS: Unknown
Launch date: July 7, 2022
Source: United States (US)
Launch site: AIR FORCE EASTERN TEST RANGE (AFETR)
Your satellite tracking list
Your tracking list is empty




NASA's NSSDC Master Catalog

Two Line Element Set (TLE):
1 53022U 22076AN  24256.57691895  .00004714  00000-0  31393-3 0  9996
2 53022  53.2184   2.2461 0001448  98.3063 261.8094 15.08854020121465
Source of the keplerian elements: AFSPC